Regional Weather Roundup
Issued by NWS

Home | Current Version | Previous Version | Graphics & Text | Print | Product List | Glossary On
Versions: 1 2 3 4 5 6 7 8 9 10 11 12 13 14 15 16 17 18 19 20 21 22 23 24 25 26 27 28 29 30 31 32 33 34 35 36 37 38 39 40 41 42 43 44 45 46 47 48 49 50
255
ASUS43 KFSD 160510
RWRSD

WEATHER ROUNDUP FOR SOUTH DAKOTA
NATIONAL WEATHER SERVICE SIOUX FALLS SD
1100 PM CST FRI DEC 15 2017

NOTE: "FAIR" INDICATES FEW OR NO CLOUDS BELOW 12,000 FEET WITH NO
SIGNIFICANT WEATHER AND/OR OBSTRUCTIONS TO VISIBILITY.


SDZ001>005-009-010-012>017-160600-
NORTHWEST AND NORTH CENTRAL SOUTH DAKOTA

CITY           SKY/WX    TMP DP  RH WIND       PRES   REMARKS
BUFFALO          N/A     37  21  52 W9        29.60R
FAITH            N/A     38  21  50 NW10      29.64R
MOBRIDGE       CLOUDY    39  24  55 NW12      29.58R
$$

SDZ012>016-024>037-041>051-057-063-072>074-160600-
SOUTHWEST AND SOUTH CENTRAL SOUTH DAKOTA

CITY           SKY/WX    TMP DP  RH WIND       PRES   REMARKS
RAPID CTY ARPT CLOUDY    37  15  40 NW3       29.68R
PIERRE         CLOUDY    42  24  49 W10       29.62R
CUSTER         CLOUDY    36  14  40 SW5       29.73R
ELLSWORTH AFB  CLOUDY    39  16  39 CALM      29.68R
PHILIP         CLOUDY    37  24  59 W8        29.67R
PINE RIDGE     CLOUDY    40  21  46 SW10      29.71S
SPEARFISH      FAIR      45  16  31 W7        29.70R
WINNER         FAIR      45  24  43 W9        29.66R
$$

SDZ004>011-016>023-039-040-160600-
NORTHEAST SOUTH DAKOTA

CITY           SKY/WX    TMP DP  RH WIND       PRES   REMARKS
ABERDEEN       CLOUDY    31  26  82 SW5       29.57R WCI  26
WATERTOWN      CLOUDY    32  29  88 SW9       29.56S WCI  24
BROOKINGS      PTCLDY    35  27  72 SW9       29.59S WCI  28
SISSETON         N/A     32  30  92 SE7       29.54F WCI  26
$$

SDZ017-020-022-023-036>040-048>070-160600-
SOUTHEAST SOUTH DAKOTA

CITY           SKY/WX    TMP DP  RH WIND       PRES   REMARKS
SIOUX FALLS    MOCLDY    38  28  67 VRB3      29.63R
HURON          CLOUDY    35  28  75 W6        29.59F
CHAMBERLAIN    CLOUDY    43  29  56 W10       29.64S
MITCHELL       CLOUDY    41  29  62 W12       29.63R
YANKTON        PTCLDY    39  26  59 SW7       29.65R
$$

ABBREVIATIONS USED IN REMARKS
   TC - TEMPERATURE IN CELSIUS
  WCI - WIND CHILL INDEX
   HX - HEAT INDEX
  VSB - VISIBILITY





USA.gov is the U.S. government's official web portal to all federal, state and local government web resources and services.